{"data":{"norad_id":66272,"epoch":"2026-05-24T20:41:11.446656Z","epoch_age_seconds":90992,"freshness":"FRESH","line1":"1 66272U 25247H   26144.86193804  .00014602  00000+0  44233-3 0  9990","line2":"2 66272  53.1578 196.3799 0001077  82.8511 277.2614 15.34409359 32768","mean_motion":15.34409359,"eccentricity":0.0001077,"inclination_deg":53.1578,"raan_deg":196.3799,"arg_perigee_deg":82.8511,"mean_anomaly_deg":277.2614,"bstar":0.00044233,"rev_number":3276,"period_min":93.847185664878,"perigee_km":461.93866793017,"apogee_km":463.41217892618,"semimajor_km":6840.8124234282,"source":"CELESTRAK","updated_at":"2026-05-25T13:38:21.161013Z"}}